Regional Weather Roundup
Issued by NWS Charleston, SC

Current Version | Previous Version | Graphics & Text | Print | Product List | Glossary On
Versions: 1 2 3 4 5 6 7 8 9 10 11 12 13 14 15 16 17 18 19 20 21 22 23 24 25 26 27 28 29 30 31 32 33 34 35 36 37 38 39 40 41 42 43 44 45 46 47 48 49 50
110 ASUS42 KCHS 241026 RWRCHS REGIONAL WEATHER ROUNDUP NATIONAL WEATHER SERVICE CHARLESTON SC 500 AM EST FRI FEB 24 2017 NOTE: "FAIR" INDICATES FEW OR NO CLOUDS BELOW 12,000 FEET WITH NO SIGNIFICANT WEATHER AND/OR OBSTRUCTIONS TO VISIBILITY. NOT ALL STATIONS ARE QUALITY CONTROLLED. USE DATA WITH CAUTION... ESPECIALLY DEWPOINT OBSERVATIONS. SCZ027-030-031-034>040-042>050-241100- ...SOUTHEAST SOUTH CAROLINA... CITY SKY/WX TMP DP RH WIND PRES REMARKS N CHARLESTON CLEAR 58 56 93 NE7 29.86S WATERFRONT PRK N/A 60 60 100 N7 29.85S MOUNT PLEASANT FAIR 57 57 100 CALM 29.87R FOG JOHNS ISLAND FAIR 59 59 100 N7 29.86S PINOPOLIS N/A 57 57 100 VRB2 29.79R MONCKS CORNER FAIR 54 52 94 CALM 29.87S SUMMERVILLE FAIR 54 54 100 CALM 29.88S FOG BEAUFORT MCAS PTCLDY 59 59 100 NE6 29.85F BEAUFORT ARPT FAIR 59 59 100 NE6 29.85R HILTON HEAD IS CLEAR 61 61 100 N5 29.85S WALTERBORO N/A 52 52 100 CALM 29.88R FOG ALLENDALE FAIR 55 55 100 CALM 29.87S FOG ...SOUTHERN MIDLANDS AND PEE DEE... CITY SKY/WX TMP DP RH WIND PRES REMARKS GEORGETOWN FAIR 55 54 94 CALM 29.88S KINGSTREE FAIR 54 52 94 CALM 29.88F ORANGEBURG CLEAR 57 56 96 CALM 29.88R BARNWELL FAIR 54 54 100 CALM 29.89R AIKEN FOG 50 48 93 CALM 29.92S VSB 1 MANNING FAIR 54 50 87 MISG 29.88S COLUMBIA CLEAR 51 48 89 CALM 29.88S SUMTER CLEAR 54 52 95 NE6 29.87S FLORENCE CLEAR 54 54 100 NE5 29.90S MYRTLE BEACH CLEAR 57 56 96 N5 29.88S N MYRTLE BEACH CLEAR 57 57 100 NE6 29.88S $$ GAZ063-065-086>088-099>101-113>116-118-119-134>141-150-241100- ...SOUTHEAST GEORGIA... CITY SKY/WX TMP DP RH WIND PRES REMARKS SAVANNAH ARPT CLEAR 58 56 93 N6 29.85R HUNTER AAF CLEAR 60 60 100 N6 29.82S FORT STEWART PTCLDY 58 57 95 N5 29.82S STATESBORO FOG 54 32 43 CALM 29.87S VSB 1/4 SYLVANIA SUNNY N/A N/A N/A CALM 29.87S FOG CLAXTON FAIR N/A N/A N/A CALM 29.86S ...CSRA...CENTRAL AND FAR SOUTHEAST GEORGIA... CITY SKY/WX TMP DP RH WIND PRES REMARKS THOMSON CLEAR 50 50 100 CALM 29.94R AUGUSTA-BUSH PTCLDY 52 50 93 CALM 29.88S FOG AUGUSTA-DANIEL CLEAR 60 55 83 E5 29.88F SWAINSBORO FAIR 59 59 100 NE3 29.88S VIDALIA PTCLDY 59 59 100 NE5 29.86S EASTMAN FAIR 50 50 100 CALM 29.89S FOG HAZLEHURST FAIR 59 59 100 CALM 29.85S ALMA PTCLDY 58 58 100 CALM 29.84S FOG WAYCROSS FOG 59 59 100 CALM 29.84R VSB 3/4 JESUP FAIR 61 59 94 NE5 29.85S BAXLEY FOG 59 59 100 NE3 29.85S VSB 1/2 BRUNSWICK CLEAR 63 63 100 N6 29.83S SAINT SIMONS MOCLDY 64 61 90 NE10 29.82S $$ SCZ027-028-034-036>038-045-046-048>050-GAZ119-141-241100- ...LAKE AND SUPPLEMENTAL COASTAL OBSERVATIONS... STATION/POSITION TIME TEMP WIND PRES WAVE SWELL AIR SEA DIR/SP/G HT/PER HT/PER/DIR (UTC) (F) (DEG/KT/KT) (MB) (FT/S) (FT/S/D) WINYAH BAY 0930 61 50/ 6 1011.0S LAKE MURRAY 0930 56 CALM 1011.9S ACE BASIN NERRS 0930 59 10/ 2 1011.0S FORT PULASKI 1000 62 62 30/ 3/ 6 1010.6 SAPELO ISLAND 1000 61 30/ 6 1010.0 $$ ANZ835-935-AMZ111-154-330-350-352-354-370-450-454-472-241100- ...C-MAN AND BUOY OBSERVATIONS... STATION/POSITION TIME TEMP WIND PRES WAVE SWELL AIR SEA DIR/SP/G HT/PER HT/PER/DIR (UTC) (F) (DEG/KT/KT) (MB) (FT/S) (FT/S/D) BUOY 41004 0950 70 70 40/ 8/ 10 1009.7S 9/10 8/140/10 BUOY 41008 0950 63 62 40/ 14/ 16 1009.0F 6/10 5/130/10 FOLLY BEACH CMAN 1000 60 350/ 6/ 7 1011.5R CAPERS NEARSHORE 0908 61 60 40/ 10/ 14 1010.5F FRIPP NEARSHORE 1008 62 61 30/ 8/ 12 1010.2F STATION/POSITION TIME TEMP WIND PRES WAVE SWELL AIR SEA DIR/SP/G HT/PER HT/PER/DIR (UTC) (F) (DEG/KT/KT) (MB) (FT/S) (FT/S/D) 5E ST. MARYS GA 1000 63 N/A 6/10 2/110/11 FRYING PAN BUOY 1010 71 72 90/ 12/ 16 1011.0 BUOY 41025 0950 70 73 120/ 14/ 17 1012.7S 7/ 8 7/140/ 8 CAPE LOOKOUT NC 1000 62 10/ 6/ 7 1012.2R BUOY 41002 0950 69 69 80/ 23/ 27 1007.7R 11/ 9 7/120/ 9 BUOY 41010 NOT AVBL ST AUGUSTINE FL 1000 65 66 360/ 15/ 15 1009.3R $$

USA.gov is the U.S. government's official web portal to all federal, state and local government web resources and services.